Weather History for KISP - August, 2014

Change the Weather History Date:

Monday, August 18, 2014

  Actual Average Record
Temperature  
Mean Temperature 68 °F 73 °F  
Max Temperature 79 °F 80 °F 92 °F (2002)
Min Temperature 57 °F 65 °F 57 °F (2014)
Degree Days  
Heating Degree Days 0 0  
Month to date heating degree days 0 0  
Since 1 June heating degree days 2 40  
Since 1 July heating degree days 0 2  
Cooling Degree Days 3 8  
Month to date cooling degree days 139 156  
Year to date cooling degree days 663 596  
Since 1 June cooling degree days 634 572  
Growing Degree Days 18 (Base 50)    
Moisture  
Dew Point 56 °F    
Average Humidity 66    
Maximum Humidity 90    
Minimum Humidity 42    
Precipitation  
Precipitation 0.00 in 0.13 in 1.32 in (1998)
Month to date precipitation 14.03 2.34  
Year to date precipitation 40.52 29.50  
Snow  
Snow 0.00 in 0.00 in - ()
Month to date snowfall 0.0 0.0  
Since 1 July snowfall 0.0 0.0  
Snow Depth 0.00 in    
Sea Level Pressure  
Sea Level Pressure 29.85 in    
Wind  
Wind Speed 6 mph (NW)    
Max Wind Speed 12 mph    
Max Gust Speed -    
Visibility 10 miles    
Events      
T = Trace of Precipitation, MM = Missing Value Source: NWS Daily Summary

Daily Weather History Graph

Daily Weather History Graph

Search for Another Location

Airport or City:

Trip Planner

Search our weather history database for the weather conditions in past years. The results will help you decide how hot, cold, wet, or windy it might be!

Date:

Astronomy

Aug. 18, 2014 Rise Set
Actual Time 6:05 AM EDT 7:46 PM EDT
Civil Twilight 5:36 AM EDT 8:15 PM EDT
Nautical Twilight 5:00 AM EDT 8:50 PM EDT
Astronomical Twilight 4:23 AM EDT 9:28 PM EDT
Moon 12:10 AM EDT (8/18) 2:47 PM EDT (8/18)
Length of Visible Light 14h 39m
Length of Day
13h 40m
Last Quarter, 38% of the Moon is Illuminated
Aug 18
Last Quarter
Aug 25
New
Sep 2
First Quarter
Sep 8
Full
Sep 15
Last Quarter

Hourly Weather History & Observations

Time (EDT) Temp. Dew Point Humidity Pressure Visibility Wind Dir Wind Speed Gust Speed Precip Events Conditions
12:56 AM 66.0 °F 55.0 °F 68% 29.86 in 10.0 mi NNW 6.9 mph - N/A   Clear
1:56 AM 64.0 °F 55.0 °F 73% 29.86 in 10.0 mi NW 3.5 mph - N/A   Clear
2:56 AM 63.0 °F 55.9 °F 78% 29.86 in 10.0 mi Calm Calm - N/A   Clear
3:56 AM 61.0 °F 55.9 °F 83% 29.85 in 10.0 mi West 3.5 mph - N/A   Clear
4:56 AM 57.9 °F 54.0 °F 87% 29.86 in 10.0 mi Calm Calm - N/A   Clear
5:56 AM 57.9 °F 54.0 °F 87% 29.86 in 10.0 mi Calm Calm - N/A   Partly Cloudy
6:56 AM 61.0 °F 57.0 °F 87% 29.87 in 10.0 mi Calm Calm - N/A   Partly Cloudy
7:56 AM 64.9 °F 57.0 °F 75% 29.89 in 10.0 mi WNW 4.6 mph - N/A   Partly Cloudy
8:56 AM 69.1 °F 55.9 °F 63% 29.90 in 10.0 mi NW 10.4 mph - N/A   Scattered Clouds
9:56 AM 71.1 °F 55.9 °F 59% 29.89 in 10.0 mi NNW 8.1 mph - N/A   Partly Cloudy
10:56 AM 73.0 °F 55.0 °F 53% 29.88 in 10.0 mi NNW 9.2 mph - N/A   Partly Cloudy
11:56 AM 75.0 °F 54.0 °F 48% 29.86 in 10.0 mi North 8.1 mph - N/A   Partly Cloudy
12:56 PM 78.1 °F 55.9 °F 46% 29.85 in 10.0 mi NW 11.5 mph - N/A   Scattered Clouds
1:56 PM 75.9 °F 54.0 °F 46% 29.83 in 10.0 mi NW 8.1 mph - N/A   Mostly Cloudy
2:56 PM 77.0 °F 54.0 °F 45% 29.83 in 10.0 mi WNW 10.4 mph - N/A   Mostly Cloudy
3:56 PM 79.0 °F 54.0 °F 42% 29.82 in 10.0 mi WNW 10.4 mph - N/A   Mostly Cloudy
4:56 PM 78.1 °F 54.0 °F 43% 29.81 in 10.0 mi NW 8.1 mph - N/A   Mostly Cloudy
5:56 PM 79.0 °F 54.0 °F 42% 29.81 in 10.0 mi NW 10.4 mph - N/A   Mostly Cloudy
6:56 PM 77.0 °F 54.0 °F 45% 29.82 in 10.0 mi WNW 5.8 mph - N/A   Mostly Cloudy
7:56 PM 72.0 °F 61.0 °F 68% 29.83 in 10.0 mi SW 8.1 mph - N/A   Scattered Clouds
8:56 PM 70.0 °F 62.1 °F 76% 29.85 in 10.0 mi SW 5.8 mph - N/A   Partly Cloudy
9:56 PM 69.1 °F 62.1 °F 78% 29.86 in 10.0 mi Calm Calm - N/A   Scattered Clouds
10:56 PM 66.0 °F 61.0 °F 84% 29.86 in 10.0 mi NNE 4.6 mph - N/A   Scattered Clouds